Location: Shepherdstown, WV
(39.4326°N, 77.8042°W)
Time: 05:33:47
(UTC-04:00)

Vanguard 1 - Pass Details

Date: 08 August 2021
Orbit: 652 x 3831 km, 34.3° (Epoch: 24 September)

Event Time Altitude Azimuth Distance (km) Brightness Sun altitude
Rises 11:18:38 0° 257° (WSW) 2,978 12.3 55.1°
Reaches altitude 10° 11:20:54 10° 251° (WSW) 2,048 11.6 55.5°
Maximum altitude 11:25:09 48° 176° (S) 925 11.2 56.2°
Drops below altitude 10° 11:30:32 10° 103° (ESE) 2,587 12.9 57.0°
Sets 11:33:44 0° 98° (E) 3,876 13.5 57.5°
